This is the latest recevied weather packets stored in our database for station/object WE0DX-1. If no packets are shown the sender has not sent any weather packets the latest 10 day(s).
| Time | Temp. | Humidity | Pressure | Rain* | Wind** | Luminosity | Snow |
|---|---|---|---|---|---|---|---|
| 1777594454 | 14.44° C | 55% | 1016.1 hPa | 0 mm | - | 24 W/m² | - |
| 1777594150 | 15° C | 56% | 1016 hPa | 0 mm | - | 27 W/m² | - |
| 1777593847 | 15° C | 57% | 1016 hPa | 0 mm | - | 25 W/m² | - |
| 1777593543 | 15° C | 57% | 1015.6 hPa | 0 mm | - | 31 W/m² | - |
| 1777593243 | 15° C | 56% | 1015.6 hPa | 0 mm | - | 45 W/m² | - |
| 1777592942 | 15° C | 56% | 1015.7 hPa | 0 mm | - | 52 W/m² | - |
| 1777592637 | 15.56° C | 56% | 1015.5 hPa | 0 mm | - | 46 W/m² | - |
| 1777592334 | 15.56° C | 56% | 1015.4 hPa | 0 mm | - | 46 W/m² | - |
| 1777592029 | 16.11° C | 55% | 1015.7 hPa | 0 mm | - | 52 W/m² | - |
| 1777591727 | 16.11° C | 55% | 1015.3 hPa | 0 mm | - | 50 W/m² | - |
| 1777591422 | 16.11° C | 53% | 1015.5 hPa | 0 mm | - | 49 W/m² | - |
| 1777591118 | 16.11° C | 52% | 1015.2 hPa | 0 mm | - | 56 W/m² | - |
| 1777590813 | 16.11° C | 50% | 1015.1 hPa | 0 mm | - | 67 W/m² | - |
| 1777590510 | 16.67° C | 50% | 1015.2 hPa | 0 mm | - | 71 W/m² | - |
| 1777590206 | 16.67° C | 50% | 1015.3 hPa | 0 mm | - | 69 W/m² | - |
| 1777589904 | 16.67° C | 49% | 1015.1 hPa | 0 mm | - | 75 W/m² | - |
| 1777589599 | 16.67° C | 49% | 1015 hPa | 0 mm | - | 76 W/m² | - |
| 1777589297 | 16.67° C | 50% | 1015 hPa | 0 mm | - | 82 W/m² | - |
| 1777588995 | 16.67° C | 50% | 1015 hPa | 0 mm | - | 86 W/m² | - |
| 1777588690 | 16.67° C | 50% | 1014.9 hPa | 0 mm | - | 82 W/m² | - |
| 1777588386 | 16.67° C | 50% | 1015.1 hPa | 0 mm | - | 69 W/m² | - |
| 1777588082 | 17.22° C | 50% | 1014.7 hPa | 0 mm | - | 84 W/m² | - |
| 1777587778 | 17.22° C | 49% | 1014.6 hPa | 0 mm | - | 104 W/m² | - |
| 1777587477 | 17.22° C | 48% | 1014.9 hPa | 0 mm | - | 98 W/m² | - |
| 1777587174 | 17.22° C | 48% | 1014.7 hPa | 0 mm | - | 99 W/m² | - |
* Rain latest hour (hover to see other rain measurements)
** Current wind speed in m/s (hover to see current wind gust speed)